www.pogodaiklimat.ru

Погода и климат >> Архив погоды >> Россия >> Бурятия >> Санага


ПОГОДА в Санаге

  • Прогноз погоды в Санаге
  • Монитор погоды в Санаге

АРХИВ ПОГОДЫ в Санаге

Время (UTC), дата Ветер
(напр.,м/с)
 
Видим.   Явления Облачность Т
(С)
Тd
(С)
f
(%)
Тe
(С)
Тes
(С)
Комфортность P
(гПа)
Po
(гПа)
Тmin
(С)
Tmax
(С)
R
(мм)
R24
(мм)
S
(см)
15 11.04 В 3 н/о н/о -1.4 -13.2 40 -5 -5 1019.0 881.3
18 11.04 С 1 50 км 1/0
[Ci fib]
-5.8 -9.2 77 -8 -8 1024.5 884.0
21 11.04 СЗ 2 н/о н/о -8.9 -17.6 49 -13 1026.3 884.0
00 12.04 С 2 50 км ясно -8.7 -11.1 83 -13 -12 884.2 -10.1
03 12.04 ЮВ 2 н/о н/о -0.5 -19.1 23 -3 1021.7 884.0
06 12.04 СЗ 5
{12}
20 км 8/6 1000 м
[Cb calv Ci fib]
+4.2 -34.4 4 +1 +3 1016.2 881.3
09 12.04 СЗ 7 н/о н/о +4.6 -34.1 4 +1 1014.5 880.0
12 12.04 С 6-10
{18}
50 км 6/6 1000 м
[Cb calv]
+0.9 -11.1 40 -5 -5 881.5 +5.2
15 12.04 Ю 1
{12}
н/о н/о -5.4 -21.0 28 -7 -7 1025.9 885.3
18 12.04 С 2 50 км ясно -7.7 -11.7 73 -12 -12 1027.1 885.3
21 12.04 штиль 0 н/о н/о -10.9 -18.6 53 -11 -11 1030.6 886.7
00 13.04 С 1 50 км ясно -8.8 -10.3 89 -11 -9 886.1 -12.3
03 13.04 ЮВ 1 н/о н/о +3.7 -23.1 12 +4 +4 1021.0 885.3
06 13.04 З 5-10
{11}
50 км 8/4 1000 м
[Cu hum Ci fib]
+10.1 -6.3 31 +8 +10 1016.1 884.0
09 13.04 СЗ 6-10
{13}
н/о н/о +12.1 -28.8 4 +10 +10 1012.2 881.3
12 13.04 СЗ 2
{13}
20 км 6/0
[Ci fib]
+8.2 -24.8 8 +7 +7 879.8 +12.2
15 13.04 ЮВ 1 н/о н/о -0.4 -16.2 29 -1 -1 1018.5 881.3
18 13.04 штиль 0 50 км 10/6 1000 м
[Sc Cs]
-4.9 -9.3 71 -6 -6 1019.4 880.0
21 13.04 З 1 н/о н/о -6.5 -12.6 62 -9 -9 1020.3 880.0
00 14.04 С 1 50 км 10/0
[Ac lent Ci fib]
-2.7 -5.3 82 -5 -4 879.5 -8.2
03 14.04 штиль 0 н/о н/о +8.7 -22.4 9 +9 +9 1010.9 878.7
06 14.04 СЗ 8-14
{14}
50 км 8/0
[Ci fib]
+15.1 -7.7 20 +13 +14 1004.5 876.0
09 14.04 СЗ 7-11
{15}
н/о н/о +16.0 -27.3 4 +15 +15 1002.8 874.7
12 14.04 СЗ 3
{12}
н/о н/о +11.8 -30.2 4 +11 +11 873.5 +16.5
15 14.04 СЗ 3
{12}
20 км 3/0
[Ci fib]
+11.8 -30.2 4 +11 +11 1004.8 874.7
18 14.04 штиль 0 н/о ясно -4.5 -8.8 72 -5 -5 1013.0 874.7
21 14.04 З 1 н/о н/о -7.2 -13.8 59 -9 -9 1014.6 874.7
00 15.04 С 1 20 км 3/0
[Ac lent Ci fib]
-4.1 -14.4 45 -6 -4 873.8 -8.4
03 15.04 СЗ 7-14
{14}
н/о н/о +11.6 -23.1 7 +9 +9 1001.8 872.0
06 15.04 З 7-14
{14}
20 км 4/1 1000 м
[Cu hum Ci fib]
+16.0 -27.3 4 +15 +18 867.4
12 15.04 СЗ 2
{15}
50 км 10/3 1000 м
[Cu med, cong Ci fib]
+12.9 -6.2 26 +13 +13 866.8 +16.4
15 15.04 В 6-10
{10}
н/о н/о +1.6 -14.5 29 -3 -3 1003.6 869.3
18 15.04 В 4
{10}
50 км 6/0
[Ac lent Ci fib]
-2.6 -6.2 76 -8 -8 1007.3 870.7
21 15.04 В 1 н/о н/о -4.1 -13.2 49 -6 1008.2 870.7
00 16.04 В 3 50 км 10/10 1000 м
[Cb calv]
-2.6 -5.2 82 -8 -8 868.2 -5.1
03 16.04 З 1 н/о н/о +0.9 -14.3 31 0 999.3 865.3
06 16.04 З 1 50 км 10 баллов +6.2 -2.9 52 +6 +6 991.8 861.3
09 16.04 штиль 0 н/о н/о +8.7 -17.3 14 +9 990.8 861.3
12 16.04 СЗ 5 20 км 10/8 1000 м
[Cb calv Ci fib]
+4.3 -13.6 26 +1 +1 861.7 +8.9
15 16.04 С 3 н/о н/о -0.9 -13.7 37 -5 1004.9 869.3
18 16.04 С 1 50 км 6 баллов -4.6 -6.1 89 -7 -7 1011.4 873.3
21 16.04 С 1 н/о н/о -4.6 -11.8 57 -6 1014.6 876.0
00 17.04 СЗ 2 50 км 10/6 1000 м
[Cb calv Ci fib]
-3.8 -6.0 85 -8 -7 877.9 -5.2 0.2 <0.5
03 17.04 С 2 н/о н/о -0.7 -17.4 27 -3 1017.2 880.0
06 17.04 З 2 50 км 2 балла +4.2 -8.8 38 +2 +13 опасность
простуды
1014.5 880.0
09 17.04 Ю 3 н/о н/о +5.4 -21.7 12 +3 1012.5 878.7
12 17.04 Ю 1 50 км 1/0
[Ac lent]
+2.2 -8.3 46 +1 +1 878.3 +6.2
18 17.04 СВ 1 50 км ясно -4.9 -9.3 71 -7 -7 1020.9 881.3
21 17.04 З 1 н/о н/о -6.9 -15.1 52 -9 1022.1 881.3
00 18.04 ЮВ 1 50 км 10/0
[Ac lent Ci fib]
-6.0 -7.5 89 -8 -8 1021.4 881.3 -8.5
03 18.04 Ю 2 н/о н/о +3.7 -15.5 23 +2 1014.9 880.0
06 18.04 Ю 7-10
{13}
50 км 3/0
[Ci fib]
+14.2 -4.5 27 +12 +15 1003.4 874.7
09 18.04 Ю 7 н/о н/о +15.5 -21.9 6 +14 999.9 872.0
12 18.04 Ю 3
{11}
50 км 1/0
[Ci fib]
+12.0 -2.0 38 +11 +11 868.3 +16.8

 

Местоположение метеостанции Санага (Бурятия, Россия): широта 50.72 долгота 102.70 высота над уровнем моря 1172 м.

В архиве по умолчанию представлена погода в Санаге за последнюю неделю. Архивные данные за месяц целиком и за предыдущие месяцы, начиная с января 2011 года, Вы можете получить, выбрав интересующий диапазон дат из раскрывающегося списка и нажав кнопку "Ввод!".


*Определитесь, кто Вы:
робот инопланетянин человек

Внимание! Время в таблицах - всемирное. Для получения местного времени необходимо прибавить поправку, которая равна 8 ч.

Смотрите также архив погоды в соседних городах и на ближайших метеорологических станциях:

Погода в Цакире (Бурятия, Россия) (71 км)
Погода в Хамар-Дабан (Иркутская область, Россия) (110 км)
Погода в Тунке (Бурятия, Россия) (113 км)
Погода в Кырене (Бурятия, Россия) (115 км)
Погода в Култуке (Иркутская область, Россия) (131 км)
Погода ву Тариалане (Монголия) (137 км)
Погода в Байкальске (Иркутская область, Россия) (142 км)
Погода в Хутаге (Монголия) (149 км)
Погода в Торее (Бурятия, Россия) (152 км)
Погода в Дабадах (Иркутская область, Россия) (153 км)

Пояснения к столбцам:

Ветер - указаны скорость ветра в м/с - средняя за 10 мин, порывы в срок и между сроками (в фигурных скобках) и направление, откуда дует ветер: С - северный, СВ - северо-восточный, В - восточный, ЮВ - юго-восточный, Ю - южный, ЮЗ - юго-западный, З - западный, СЗ - северо-западный.
Видимость - горизонтальная дальность видимости в метрах или километрах. При видимости от 1 до 10 км при отсутствии осадков обычно наблюдается дымка, при ухудшении видимости до 1 км и менее - туман. В сухую погоду видимость может ухудшаться дымом, пылью или мглою.
Явления - указаны атмосферные явления, наблюдавшиеся в срок или в последний час перед сроком; фигурными скобками обозначены явления, наблюдавшиеся между сроками (за 1-3 часа до срока); квадратными скобками обозначены град или гололедные отложения с указанием их диаметра в мм.
Облачность - указаны через наклонную черту общая и нижняя облачность в баллах и высота нижней границы облаков в метрах; квадратными скобками обозначены формы облаков: Ci - перистые, Cs - перисто-слоистые, Cc - перисто-кучевые, Ac - высококучевые, As - высокослоистые, Sc - слоисто-кучевые, Ns - слоисто-дождевые, Cu - кучевые, Cb - кучево-дождевые. Подробнее классификацию облаков см. в Атласе облаков (PDF).
T - Температура воздуха - температура, измеренная на высоте 2 м над землей.
Td - Температура точки росы - температура, при понижении до которой содержащийся в воздухе водяной пар достигнет насыщения.
f - Относительная влажность воздуха - влажноcть воздуха, измеренная на высоте 2 м над землей.
Te - Эффективная температура - температура, которую ощущает одетый по сезону человек в тени. Характеристика душности погоды. При расчете учитывается влияние влажности воздуха и скорости ветра на теплоощущения человека.
Tes - Эффективная температура на солнце - температура, которую ощущает человек, с поправкой на солнечный нагрев. Характеристика знойности погоды. Зависит от высоты солнца над горизонтом, облачности и скорости ветра. Ночью, в пасмурную погоду, а также при ветре 12 м/с и более поправка равна нулю.
P - Атмосферное давление - приведенное к уровню моря атмосферное давление.
Po - Атмосферное давление - измеренное на уровне метеостанции атмосферное давление.
Tmin - Минимальная температура - минимум температуры воздуха на высоте 2 м над землей.
Tmax - Максимальная температура - максимум температуры воздуха на высоте 2 м над землей.
R - Количество осадков - Количество выпавших осадков за период времени, мм. При наведении курсора мыши на число - период времени, за который выпало указанное количество осадков.
R24 - Количество осадков - Количество выпавших осадков за 24 часа, мм.
S - Снежный покров - Высота снежного покрова, см. При наведении курсора мыши на число - состояние снежного покрова и степень покрытия местности в баллах.